Location: Caltech
(34.1382°N, 118.1253°W)
Time: 04:41:53
(UTC-07:00)

BREEZE M DEB (TANK) - Visible Passes

Search period start: 18 September 2014 00:00
Search period end: 28 September 2014 00:00
Orbit: 340 x 13823 km, 49.6° (Epoch: 16 September)

Date Brightness Start Highest point End Pass type
(mag) Time Alt. Az. Time Alt. Az. Time Alt. Az.
18 Sep 3.7 05:48:36 15° W 05:50:14 21° NW 05:52:12 10° NNE visible
20 Sep 3.3 05:18:22 31° NW 05:18:32 31° NW 05:20:48 10° NNE visible
22 Sep 4.0 04:48:01 27° NNE 04:48:01 27° NNE 04:49:18 10° NE visible
24 Sep 5.6 04:17:35 11° NE 04:17:35 11° NE 04:17:42 10° NE visible
